Crosby, ND

9:05 AM CDT on June 23, 2017 (GMT -0500)
Crosby

Weather History for KD50 - January, 2014

Change the Weather History Date:

Monday, January 6, 2014

  Actual Average (KISN) Record (KISN)
Temperature  
Mean Temperature -12 °F -  
Max Temperature 0 °F 15 °F 49 °F (1900)
Min Temperature -23 °F -3 °F -37 °F (1909)
Degree Days  
Heating Degree Days 76    
Moisture  
Dew Point -20 °F    
Average Humidity 71    
Maximum Humidity 85    
Minimum Humidity 59    
Precipitation  
Precipitation 0.03 in - - ()
Sea Level Pressure  
Sea Level Pressure 30.24 in    
Wind  
Wind Speed 11 mph (WSW)    
Max Wind Speed 16 mph    
Max Gust Speed 22 mph    
Visibility 10 miles    
Events Snow    
Averages and records for this station are not official NWS values.
T = Trace of Precipitation, MM = Missing Value Source: NWS Daily Summary

Daily Weather History Graph

Daily Weather History Graph

Search for Another Location

Airport or City:

Trip Planner

Search our weather history database for the weather conditions in past years. The results will help you decide how hot, cold, wet, or windy it might be!

Date:

Astronomy

Jan. 06, 2014 Rise Set
Actual Time 8:46 AM CST 5:12 PM CST
Civil Twilight 8:09 AM CST 5:49 PM CST
Nautical Twilight 7:29 AM CST 6:29 PM CST
Astronomical Twilight 6:51 AM CST 7:07 PM CST
Moon 11:29 AM CST (1/6) No Moon Set
Length of Visible Light 9h 39m
Length of Day
8h 26m
Waxing Crescent, 35% of the Moon is Illuminated
Jan 6
Waxing Crescent
Jan 7
First Quarter
Jan 15
Full
Jan 23
Last Quarter
Jan 30
New

Hourly Weather History & Observations

Time (CST) Temp. Windchill Dew Point Humidity Pressure Visibility Wind Dir Wind Speed Gust Speed Precip Events Conditions
12:15 AM -22.0 °F -46.6 °F -29.2 °F 69% 30.45 in 10.0 mi WNW 13.8 mph - N/A   Unknown
12:35 AM -22.0 °F -45.7 °F -29.2 °F 69% 30.45 in 10.0 mi WNW 12.7 mph - N/A   Unknown
12:55 AM -22.0 °F -48.4 °F -27.4 °F 76% 30.44 in 10.0 mi WNW 16.1 mph - N/A   Unknown
1:15 AM -22.0 °F -44.7 °F -27.4 °F 76% 30.44 in 10.0 mi NW 11.5 mph - N/A   Unknown
1:35 AM -22.0 °F -42.3 °F -27.4 °F 76% 30.44 in 10.0 mi NW 9.2 mph - N/A   Unknown
1:55 AM -22.0 °F -46.6 °F -27.4 °F 76% 30.43 in 10.0 mi NW 13.8 mph - N/A   Unknown
2:15 AM -22.0 °F -45.7 °F -27.4 °F 76% 30.43 in 10.0 mi WNW 12.7 mph - N/A   Unknown
2:35 AM -22.0 °F -45.7 °F -27.4 °F 76% 30.43 in 10.0 mi WNW 12.7 mph - N/A   Unknown
3:15 AM -20.2 °F -44.4 °F -27.4 °F 69% 30.43 in 10.0 mi NW 13.8 mph - N/A   Unknown
3:35 AM -20.2 °F -46.0 °F -27.4 °F 69% 30.43 in 10.0 mi NW 16.1 mph - N/A   Unknown
3:55 AM -20.2 °F -45.2 °F -27.4 °F 69% 30.43 in 10.0 mi WNW 15.0 mph - N/A   Unknown
4:15 AM -20.2 °F -42.4 °F -27.4 °F 69% 30.43 in 10.0 mi WNW 11.5 mph - N/A   Unknown
4:35 AM -20.2 °F -43.4 °F -27.4 °F 69% 30.42 in 10.0 mi WNW 12.7 mph - N/A   Unknown
4:55 AM -22.0 °F -45.7 °F -29.2 °F 69% 30.41 in 10.0 mi WNW 12.7 mph - N/A   Unknown
5:15 AM -22.0 °F -44.7 °F -29.2 °F 69% 30.40 in 10.0 mi WNW 11.5 mph - N/A   Unknown
5:35 AM -22.0 °F -45.7 °F -29.2 °F 69% 30.40 in 10.0 mi WNW 12.7 mph - N/A   Unknown
5:55 AM -22.0 °F -46.6 °F -29.2 °F 69% 30.40 in 10.0 mi WNW 13.8 mph - N/A   Unknown
6:15 AM -22.0 °F -45.7 °F -29.2 °F 69% 30.39 in 10.0 mi WNW 12.7 mph - N/A   Unknown
6:35 AM -22.0 °F -44.7 °F -29.2 °F 69% 30.39 in 10.0 mi West 11.5 mph - N/A   Unknown
6:55 AM -22.0 °F -45.7 °F -29.2 °F 69% 30.39 in 10.0 mi WNW 12.7 mph - N/A   Unknown
7:15 AM -22.0 °F -44.7 °F -29.2 °F 69% 30.38 in 10.0 mi West 11.5 mph - N/A   Unknown
7:35 AM -23.8 °F -44.5 °F -29.2 °F 76% 30.38 in - West 9.2 mph - N/A   Unknown
7:55 AM -22.0 °F -43.6 °F -29.2 °F 69% 30.37 in - West 10.4 mph - N/A   Unknown
8:15 AM -23.8 °F -45.8 °F -29.2 °F 76% 30.37 in - West 10.4 mph - N/A   Unknown
8:35 AM -22.0 °F -43.6 °F -29.2 °F 69% 30.36 in - West 10.4 mph - N/A   Unknown
8:55 AM -23.8 °F -45.8 °F -29.2 °F 76% 30.35 in - WSW 10.4 mph - N/A   Unknown
9:15 AM -22.0 °F -43.6 °F -29.2 °F 69% 30.35 in - West 10.4 mph - N/A   Unknown
9:35 AM -20.2 °F -40.1 °F -29.2 °F 63% 30.36 in - West 9.2 mph - N/A   Unknown
9:55 AM -20.2 °F -40.1 °F -27.4 °F 69% 30.34 in - West 9.2 mph - N/A   Unknown
10:15 AM -18.4 °F -37.9 °F -27.4 °F 63% 30.34 in - West 9.2 mph - N/A   Unknown
10:35 AM -18.4 °F -40.2 °F -25.6 °F 70% 30.34 in - WSW 11.5 mph - N/A   Unknown
10:55 AM -16.6 °F -36.8 °F -25.6 °F 64% 30.33 in - West 10.4 mph - N/A   Unknown
11:15 AM -16.6 °F -35.7 °F -25.6 °F 64% 30.32 in - WSW 9.2 mph - N/A   Unknown
11:35 AM -16.6 °F -36.8 °F -25.6 °F 64% 30.31 in - West 10.4 mph - N/A   Unknown
11:55 AM -14.8 °F -33.5 °F -23.8 °F 64% 30.29 in - West 9.2 mph - N/A   Unknown
12:15 PM -13.0 °F -30.0 °F -22.0 °F 64% 30.28 in 10.0 mi West 8.1 mph - N/A   Unknown
12:35 PM -13.0 °F -31.3 °F -22.0 °F 64% 30.28 in 10.0 mi WNW 9.2 mph - N/A   Unknown
12:55 PM -13.0 °F -28.6 °F -22.0 °F 64% 30.26 in 10.0 mi West 6.9 mph - N/A   Unknown
1:15 PM -11.2 °F -23.0 °F -22.0 °F 59% 30.24 in - WSW 4.6 mph - N/A   Unknown
1:35 PM -11.2 °F -23.0 °F -20.2 °F 64% 30.22 in - WSW 4.6 mph - N/A   Unknown
1:55 PM -9.4 °F -22.7 °F -20.2 °F 59% 30.20 in - West 5.8 mph - N/A   Unknown
2:15 PM -9.4 °F -24.3 °F -18.4 °F 65% 30.19 in - West 6.9 mph - N/A   Unknown
2:35 PM -9.4 °F -24.3 °F -18.4 °F 65% 30.18 in - SW 6.9 mph - N/A   Unknown
2:55 PM -7.6 °F -22.1 °F -18.4 °F 59% 30.17 in - SW 6.9 mph - N/A   Unknown
3:15 PM -7.6 °F -25.7 °F -16.6 °F 65% 30.17 in - SW 10.4 mph - N/A   Unknown
3:35 PM -9.4 °F -25.6 °F -18.4 °F 65% 30.17 in - SW 8.1 mph - N/A   Unknown
3:55 PM -7.6 °F -24.6 °F -16.6 °F 65% 30.15 in - WSW 9.2 mph - N/A   Unknown
4:15 PM -7.6 °F -25.7 °F -16.6 °F 65% 30.14 in - SW 10.4 mph - N/A   Unknown
4:35 PM -7.6 °F -23.4 °F -16.6 °F 65% 30.14 in - SW 8.1 mph - N/A   Unknown
4:55 PM -7.6 °F -20.6 °F -14.8 °F 71% 30.13 in - SSW 5.8 mph - N/A   Unknown
5:15 PM -5.8 °F -19.9 °F -14.8 °F 65% 30.11 in - SW 6.9 mph - N/A   Unknown
5:35 PM -5.8 °F -19.9 °F -13.0 °F 71% 30.11 in - SW 6.9 mph - N/A   Unknown
5:55 PM -4.0 °F -16.3 °F -13.0 °F 65% 30.10 in - SW 5.8 mph - N/A   Unknown
6:15 PM -4.0 °F -19.0 °F -11.2 °F 71% 30.07 in - SSW 8.1 mph - N/A   Unknown
6:35 PM -4.0 °F -20.2 °F -11.2 °F 71% 30.07 in - SSW 9.2 mph 21.9 mph N/A   Unknown
6:55 PM -4.0 °F -21.2 °F -11.2 °F 71% 30.07 in - SSW 10.4 mph - N/A   Unknown
7:15 PM -4.0 °F -17.8 °F -9.4 °F 78% 30.07 in - SSW 6.9 mph - N/A Snow Heavy Snow
7:35 PM -4.0 °F -16.3 °F -9.4 °F 78% 30.05 in - SSW 5.8 mph - N/A Snow Heavy Snow
7:55 PM -2.2 °F -16.8 °F -7.6 °F 78% 30.03 in - SSW 8.1 mph - N/A Snow Heavy Snow
8:15 PM -2.2 °F -18.0 °F -7.6 °F 78% 30.02 in - SSW 9.2 mph - N/A Snow Heavy Snow
8:35 PM -2.2 °F -19.9 °F -7.6 °F 78% 30.00 in - SSW 11.5 mph - N/A Snow Heavy Snow
8:55 PM -2.2 °F -19.9 °F -7.6 °F 78% 29.99 in - SSW 11.5 mph - N/A   Unknown
9:15 PM -0.4 °F -16.7 °F -5.8 °F 78% 29.98 in - SSW 10.4 mph - N/A   Unknown
9:35 PM -0.4 °F -17.6 °F -5.8 °F 78% 29.97 in - SSW 11.5 mph - N/A Snow Heavy Snow
9:55 PM -0.4 °F -16.7 °F -5.8 °F 78% 29.96 in - SSW 10.4 mph - N/A   Unknown
10:15 PM -0.4 °F -13.4 °F -4.0 °F 85% 29.95 in - South 6.9 mph - N/A   Unknown
10:35 PM -0.4 °F -14.7 °F -4.0 °F 85% 29.95 in - South 8.1 mph - N/A   Unknown
10:55 PM -0.4 °F -15.7 °F -4.0 °F 85% 29.94 in - South 9.2 mph - N/A Snow Heavy Snow
11:15 PM -0.4 °F -14.7 °F -4.0 °F 85% 29.93 in - South 8.1 mph - 0.01 in Snow Heavy Snow
11:35 PM -0.4 °F -15.7 °F -4.0 °F 85% 29.93 in - South 9.2 mph - 0.02 in Snow Heavy Snow
11:55 PM -0.4 °F -10.4 °F -4.0 °F 85% 29.93 in - South 4.6 mph - 0.03 in Snow Heavy Snow